Regional Weather Roundup
Issued by NWS

Home | Current Version | Previous Version | Graphics & Text | Print | Product List | Glossary On
Versions: 1 2 3 4 5 6 7 8 9 10 11 12 13 14 15 16 17 18 19 20 21 22 23 24 25 26 27 28 29 30 31 32 33 34 35 36 37 38 39 40 41 42 43 44 45 46 47 48 49 50
000
ASUS45 KBOU 270507
RWRCO

WEATHER ROUNDUP FOR COLORADO
NATIONAL WEATHER SERVICE DENVER/BOULDER CO
1100 PM MDT SUN APR 26 2015

NOTE: "FAIR" INDICATES FEW OR NO CLOUDS BELOW 12000 FEET WITH NO
SIGNIFICANT WEATHER AND/OR OBSTRUCTIONS TO VISIBILITY.

COZ001>005-013-030-031-270600-
...NORTHWEST COLORADO...

CITY           SKY/WX    TMP DP  RH WIND       PRES   REMARKS
CRAIG          CLOUDY    41  37  86 CALM      30.01R
HAYDEN         MOCLDY    39  36  87 S3        30.01R
MEEKER         LGT RAIN  42  39  89 SW3       30.02R
MOUNT WERNER   NOT AVBL
STEAMBOAT SPGS MOCLDY    40  37  92 CALM      30.01R
WALDEN         MOCLDY    34  28  80 N5        30.04R WCI  30
$$

COZ006>008-011-270600-
...WEST CENTRAL VALLEYS...

CITY           SKY/WX    TMP DP  RH WIND       PRES   REMARKS
GRAND JUNCTION MOCLDY    47  43  86 CALM      29.95R
MONTROSE       CLOUDY    44  42  93 W6        29.96S
EAGLE          PTCLDY    45  39  81 SW3       29.99R
RIFLE          CLOUDY    45  40  82 CALM      29.96R
DELTA          MOCLDY    47  43  88 MISG      29.95R
NUCLA          CLOUDY    46  41  81 CALM      29.97R
$$

COZ017>023-064>068-270600-
...SOUTHWEST COLORADO...

CITY           SKY/WX    TMP DP  RH WIND       PRES   REMARKS
DURANGO        CLOUDY    38  37  97 N3        29.90R
CORTEZ         CLOUDY    48  39  71 NW6       29.90R
PAGOSA SPRINGS CLOUDY    40  38  95 NW5       29.93R
TELLURIDE      FLURRIES  34  34 100 CALM      29.99S
WOLF CREEK PAS NOT AVBL
$$

COZ009-010-012-014-032>034-037-058>063-270600-
...CENTRAL COLORADO...

CITY           SKY/WX    TMP DP  RH WIND       PRES   REMARKS
ASPEN          CLOUDY    38  36  92 CALM      29.98S
BUENA VISTA    CLOUDY    37  34  90 SE6       30.05R
COPPER MTN     CLOUDY    28  23  80 E17       30.10S WCI  16
BERTHOUD PASS  HAZE      19  12  73 E31       30.12S VSB<1/4 WCI   0
COTTONWOOD PAS SNOW      34  32  93 SE6       30.07R VSB 1/4 WCI  29
GUNNISON       PTCLDY    39  34  81 NE3       30.01R
KREMMLING      CLOUDY    37  30  75 CALM      30.02R
LEADVILLE      FLURRIES  28  28 100 S6        30.05S WCI  22
MONARCH PASS   CLOUDY    23  23 100 MISG      30.15R
SALIDA         CLOUDY    36  35  96 SW3       30.12S
SUNLIGHT       FOG       32  32 100 CALM      30.10R VSB 1/2
WILKERSON PASS LGT SNOW N/A N/A N/A MISG      30.11R VSB 1
$$

COZ069>075-270600-
...SAN LUIS VALLEY/SANGRE DE CRISTO MOUNTAINS...

CITY           SKY/WX    TMP DP  RH WIND       PRES   REMARKS
ALAMOSA        CLOUDY    37  33  85 N10       29.95R
LA VETA PASS   SNOW      27  27 100 MISG      29.99S VSB 1/2
SAGUACHE       CLOUDY    36  34  93 NW10      29.98S
$$

COZ035-036-038>040-270600-
...NORTHERN COLORADO FRONT RANGE...

CITY           SKY/WX    TMP DP  RH WIND       PRES   REMARKS
DENVER INTL AP LGT RAIN  40  40 100 E10       30.08R FOG
DMNS CITY PARK   N/A     40  39  97 NE8G14    30.08R
AURORA         LGT RAIN  39  39 100 NE7       30.08S FOG
FRONT RANGE AP NOT AVBL
ERIE MUNI ARPT LGT RAIN  42  41  98 E8        30.09R
BOULDER MUN AP DRIZZLE   41  41 100 E7        30.09R
CENTENNIAL     LGT RAIN  39  39 100 NE6       30.07R FOG
BROOMFIELD     NOT AVBL
FORT COLLINS   CLOUDY    41  39  93 E13       30.12R
LONGMONT       RAIN      44  42  94 E5        30.11S
$$

COZ041-046-047-076>085-087-088-270600-
...PIKES PEAK/PALMER DIVIDE AND SOUTHERN FOOTHILLS...

CITY           SKY/WX    TMP DP  RH WIND       PRES   REMARKS
COLO. SPRINGS  CLOUDY    40  38  93 E9        30.06R
A. F. ACADEMY  NOT AVBL
ELLICOTT       CLOUDY   N/A N/A N/A E13       30.05R
FALCON         CLOUDY    37  37 100 E8        30.07R
FORT CARSON    DRIZZLE   40  40 100 NE8       30.04R FOG
LIMON          CLOUDY    39  38  96 NE6       30.08R
MONUMENT HILL  CLOUDY    34  34 100 E8        30.05S FOG     WCI  27
TRINIDAD       LGT RAIN  42  40  92 E13       29.98R
$$

COZ042>045-048>051-090-091-270600-
...NORTHEAST COLORADO...

CITY           SKY/WX    TMP DP  RH WIND       PRES   REMARKS
GREELEY ARPT   CLOUDY    39  36  87 E8        30.12R
AKRON          CLOUDY    41  41 100 E13       30.10R FOG
BURLINGTON     LGT RAIN  43  41  93 NE14      30.05S
WRAY           LGT RAIN N/A N/A N/A NE6       30.10R
STERLING       DRIZZLE   43  43 100 E5        30.11S
HOLYOKE        CLOUDY    46  43  87 NE7       30.11F
FORT MORGAN    RAIN      40  39  97 E6        30.12S
$$

COZ086-089-092>099-270600-
...SOUTHEAST COLORADO...

CITY           SKY/WX    TMP DP  RH WIND       PRES   REMARKS
PUEBLO         CLOUDY    43  42  97 E12       30.03R
LA JUNTA       CLOUDY    45  42  89 E15       30.01R
LAMAR          CLOUDY    45  44  97 E12       30.00R
SPRINGFIELD      N/A     43  43 100 NE17      29.94F
$$


USA.gov is the U.S. government's official web portal to all federal, state and local government web resources and services.